Miscellaneous Local Product
Issued by NWS Hastings, NE

Home | Current Version | Previous Version | Graphics & Text | Print | Product List | Glossary On
Versions: 1 2 3 4 5 6 7 8 9 10 11 12 13 14 15 16 17 18 19 20 21 22 23 24 25 26 27 28 29 30 31 32 33 34 35 36 37 38 39 40 41 42 43 44 45 46 47 48 49 50
000
AXUS43 KGID 220902
MISGRI

GID CWA HOURLY WEATHER ROUNDUP
NATIONAL WEATHER SERVICE HASTINGS NE
400 AM CDT FRI MAY 22 2015

NOTE: "FAIR" INDICATES FEW OR NO CLOUDS BELOW 12,000 FEET WITH NO
SIGNIFICANT WEATHER AND/OR OBSTRUCTIONS TO VISIBILITY.

...SOUTH CENTRAL NEBRASKA...

CITY           SKY/WX    TMP DP  RH WIND       PRES   REMARKS
GRAND ISLAND   MOCLDY    48  40  73 CALM      30.20F
HASTINGS       MOCLDY    47  41  80 CALM      30.20S
KEARNEY        MOCLDY    46  39  76 CALM      30.20S
ORD            PTCLDY    38  34  85 CALM      30.18F
YORK           PTCLDY    48  43  81 CALM      30.20F
AURORA         MOCLDY    46  41  83 CALM      30.19F
LEXINGTON      CLOUDY    43  40  89 CALM      30.18F
HOLDREGE       MOCLDY    46  40  77 SE5       30.19F
HEBRON         MOCLDY    46  43  89 CALM      30.22R

...NEBRASKA PANHANDLE...

CITY           SKY/WX    TMP DP  RH WIND       PRES   REMARKS
CHADRON        CLOUDY    53  43  68 SE15      30.09F
ALLIANCE       CLOUDY    50  43  77 SE12      30.10F
SCOTTSBLUFF    CLOUDY    51  44  77 SE10      30.09F
SIDNEY         CLOUDY    48  43  82 S10       30.11F

...WESTERN AND NORTH CENTRAL NEBRASKA...

CITY           SKY/WX    TMP DP  RH WIND       PRES   REMARKS
VALENTINE      CLEAR     45  38  76 CALM      30.16S
AINSWORTH      CLEAR     41  38  86 S7        30.17S
ONEILL         CLEAR     45  36  70 SW7       30.18F
BROKEN BOW     PTCLDY    40  37  89 CALM      30.18F
IMPERIAL       CLOUDY    48  43  82 SE8       30.13F
NORTH PLATTE   MOCLDY    45  41  86 E7        30.16F
MCCOOK         CLOUDY    47  43  86 SE6       30.16F

...EASTERN NEBRASKA...

CITY           SKY/WX    TMP DP  RH WIND       PRES   REMARKS
NORFOLK        CLEAR     44  37  76 CALM      30.18F
SO SIOUX CITY  CLEAR     48  37  65 CALM      30.19S
TEKAMAH        CLEAR     54  39  57 CALM      30.19S
COLUMBUS       PTCLDY    45  36  70 CALM      30.22F
ALBION         CLEAR     41  35  79 CALM      30.18F
OMAHA EPPLEY   PTCLDY    58  40  51 CALM      30.19F
OFFUTT AFB     PTCLDY    44  41  90 E1        30.18F
MILLARD        PTCLDY    49  44  84 CALM      30.20S
LINCOLN        MOCLDY    46  40  79 N3        30.21F
NEBRASKA CITY  PTCLDY    51  39  63 W7        30.19F
BEATRICE       PTCLDY    47  44  89 CALM      30.20S
FALLS CITY     PTCLDY    50  44  80 CALM      30.20S

...NORTHERN KANSAS...

CITY           SKY/WX    TMP DP  RH WIND       PRES   REMARKS
GOODLAND       LGT RAIN  48  46  93 SE14      30.12F
HILL CITY      CLOUDY    50  44  80 SE6       30.19F
NORTON         SUNNY     48  43  81 SE6       30.18S
PHILLIPSBURG   CLEAR     48  48 100 CALM      30.20S
SMITH CENTER   CLEAR     46  43  87 E5        30.20S
HAYS           CLOUDY    50  43  76 SE3       30.20F
RUSSELL        CLOUDY    51  47  86 SE7       30.20R
CONCORDIA      CLOUDY    47  43  86 S5        30.21S
SALINA         CLOUDY    51  44  77 CALM      30.21F
TOPEKA         CLEAR     48  46  93 CALM      30.21S FOG



USA.gov is the U.S. government's official web portal to all federal, state and local government web resources and services.